Stündliche Wetter Ceiba

Heute, 25 Januar, Montag

Zeit Temperatur Niederschläge Wind Luftdruck Luftfeuchtigkeit
00:00 +20°C° 0.1 mm 2 m/S 722 mmHg 92%
01:00 +20°C° 0.1 mm 2 m/S 722 mmHg 93%
02:00 +20°C° 0.1 mm 2 m/S 721 mmHg 93%
03:00 +20°C° 0.1 mm 3 m/S 721 mmHg 93%
04:00 +20°C° 0.1 mm 3 m/S 721 mmHg 93%
05:00 +20°C° 0.1 mm 3 m/S 721 mmHg 93%
06:00 +20°C° 0.1 mm 3 m/S 722 mmHg 92%
07:00 +21°C° 0.1 mm 3 m/S 722 mmHg 92%
08:00 +21°C° 0.1 mm 2 m/S 723 mmHg 91%
09:00 +22°C° 0.1 mm 3 m/S 723 mmHg 86%
10:00 +24°C° 0.1 mm 3 m/S 724 mmHg 81%
11:00 +25°C° 0.1 mm 4 m/S 724 mmHg 77%
12:00 +26°C° 0.1 mm 4 m/S 723 mmHg 75%
13:00 +26°C° 0.1 mm 4 m/S 723 mmHg 73%
14:00 +26°C° 0.1 mm 4 m/S 722 mmHg 70%
15:00 +26°C° 0 mm 4 m/S 722 mmHg 73%
16:00 +25°C° 0 mm 4 m/S 722 mmHg 75%
17:00 +23°C° 0 mm 4 m/S 722 mmHg 78%
18:00 +22°C° 0 mm 4 m/S 722 mmHg 82%
19:00 +21°C° 0 mm 3 m/S 722 mmHg 86%
20:00 +20°C° 0 mm 2 m/S 722 mmHg 90%
21:00 +20°C° 0 mm 2 m/S 722 mmHg 91%
22:00 +20°C° 0 mm 2 m/S 722 mmHg 91%
23:00 +19°C° 0 mm 2 m/S 722 mmHg 92%

Morgen, 26 Januar, Dienstag

Zeit Temperatur Niederschläge Wind Luftdruck Luftfeuchtigkeit
00:00 +19°C° 0 mm 2 m/S 722 mmHg 91%
01:00 +19°C° 0 mm 2 m/S 722 mmHg 91%
02:00 +19°C° 0 mm 2 m/S 721 mmHg 91%
03:00 +19°C° 0 mm 2 m/S 721 mmHg 91%
04:00 +18°C° 0 mm 2 m/S 721 mmHg 91%
05:00 +19°C° 0 mm 1 m/S 721 mmHg 91%
06:00 +19°C° 0.1 mm 2 m/S 722 mmHg 89%
07:00 +19°C° 0.1 mm 2 m/S 722 mmHg 88%
08:00 +20°C° 0.1 mm 2 m/S 723 mmHg 87%
09:00 +21°C° 0.3 mm 2 m/S 723 mmHg 86%
10:00 +22°C° 0.3 mm 3 m/S 724 mmHg 85%
11:00 +24°C° 0.3 mm 3 m/S 724 mmHg 84%
12:00 +23°C° 0.5 mm 4 m/S 724 mmHg 83%
13:00 +23°C° 0.5 mm 4 m/S 723 mmHg 82%
14:00 +25°C° 0.5 mm 4 m/S 723 mmHg 81%
15:00 +23°C° 0.3 mm 4 m/S 723 mmHg 81%
16:00 +23°C° 0.3 mm 4 m/S 722 mmHg 82%
17:00 +23°C° 0.3 mm 4 m/S 722 mmHg 83%
18:00 +22°C° 0.1 mm 3 m/S 722 mmHg 86%
19:00 +21°C° 0.1 mm 3 m/S 723 mmHg 89%
20:00 +20°C° 0.1 mm 2 m/S 723 mmHg 91%
21:00 +20°C° 0 mm 2 m/S 723 mmHg 91%
22:00 +20°C° 0 mm 2 m/S 723 mmHg 92%
23:00 +20°C° 0 mm 2 m/S 723 mmHg 92%

übermorgen, 27 Januar, Mittwoch

Zeit Temperatur Niederschläge Wind Luftdruck Luftfeuchtigkeit
00:00 +20°C° 0 mm 2 m/S 723 mmHg 92%
01:00 +20°C° 0 mm 2 m/S 722 mmHg 92%
02:00 +20°C° 0 mm 2 m/S 722 mmHg 92%
03:00 +19°C° 0 mm 3 m/S 722 mmHg 91%
04:00 +19°C° 0 mm 3 m/S 722 mmHg 90%
05:00 +19°C° 0 mm 3 m/S 722 mmHg 89%
06:00 +19°C° 0 mm 2 m/S 722 mmHg 88%
07:00 +20°C° 0 mm 2 m/S 723 mmHg 87%
08:00 +20°C° 0 mm 2 m/S 723 mmHg 87%
09:00 +21°C° 0 mm 3 m/S 723 mmHg 82%
10:00 +22°C° 0 mm 3 m/S 724 mmHg 77%
11:00 +25°C° 0 mm 4 m/S 724 mmHg 72%
12:00 +25°C° 0 mm 4 m/S 724 mmHg 71%
13:00 +25°C° 0 mm 4 m/S 723 mmHg 71%
14:00 +25°C° 0 mm 4 m/S 723 mmHg 70%
15:00 +25°C° 0 mm 4 m/S 722 mmHg 71%
16:00 +25°C° 0 mm 4 m/S 722 mmHg 73%
17:00 +23°C° 0 mm 4 m/S 722 mmHg 74%
18:00 +22°C° 0 mm 3 m/S 722 mmHg 80%
19:00 +21°C° 0 mm 3 m/S 722 mmHg 85%
20:00 +19°C° 0 mm 2 m/S 722 mmHg 90%
21:00 +19°C° 0 mm 2 m/S 722 mmHg 90%
22:00 +19°C° 0 mm 2 m/S 722 mmHg 91%
23:00 +19°C° 0 mm 2 m/S 722 mmHg 91%

28 Januar, Donnerstag

Zeit Temperatur Niederschläge Wind Luftdruck Luftfeuchtigkeit
00:00 +19°C° 0 mm 2 m/S 722 mmHg 91%
01:00 +20°C° 0 mm 1 m/S 721 mmHg 91%
02:00 +19°C° 0 mm 1 m/S 721 mmHg 91%
03:00 +19°C° 0 mm 1 m/S 721 mmHg 91%
04:00 +19°C° 0 mm 1 m/S 721 mmHg 91%
05:00 +19°C° 0 mm 1 m/S 721 mmHg 91%
06:00 +20°C° 0 mm 1 m/S 721 mmHg 89%
07:00 +20°C° 0 mm 1 m/S 722 mmHg 88%
08:00 +21°C° 0 mm 1 m/S 722 mmHg 87%
09:00 +21°C° 0 mm 2 m/S 722 mmHg 80%
10:00 +24°C° 0 mm 2 m/S 723 mmHg 74%
11:00 +26°C° 0 mm 3 m/S 723 mmHg 68%
12:00 +26°C° 0 mm 3 m/S 723 mmHg 66%
13:00 +27°C° 0 mm 3 m/S 722 mmHg 64%
14:00 +27°C° 0 mm 3 m/S 722 mmHg 62%
15:00 +27°C° 0 mm 3 m/S 721 mmHg 65%
16:00 +26°C° 0 mm 3 m/S 721 mmHg 68%
17:00 +26°C° 0 mm 2 m/S 720 mmHg 70%
18:00 +24°C° 0 mm 2 m/S 721 mmHg 75%
19:00 +23°C° 0 mm 2 m/S 721 mmHg 80%
20:00 +21°C° 0 mm 1 m/S 721 mmHg 85%
21:00 +21°C° 0 mm 1 m/S 721 mmHg 85%
22:00 +21°C° 0 mm 1 m/S 721 mmHg 85%
23:00 +20°C° 0 mm 1 m/S 721 mmHg 85%

29 Januar, Freitag

Zeit Temperatur Niederschläge Wind Luftdruck Luftfeuchtigkeit
00:00 +20°C° 0 mm 1 m/S 721 mmHg 86%
01:00 +20°C° 0 mm 1 m/S 720 mmHg 88%
02:00 +20°C° 0 mm 1 m/S 720 mmHg 89%
03:00 +20°C° 0 mm 1 m/S 720 mmHg 89%
04:00 +20°C° 0 mm 1 m/S 720 mmHg 89%
05:00 +18°C° 0 mm 0 m/S 720 mmHg 89%
06:00 +18°C° 0 mm 0 m/S 720 mmHg 87%
07:00 +19°C° 0 mm 0 m/S 721 mmHg 85%
08:00 +19°C° 0 mm 0 m/S 721 mmHg 82%
09:00 +22°C° 0.1 mm 1 m/S 722 mmHg 78%
10:00 +24°C° 0.1 mm 1 m/S 722 mmHg 75%
11:00 +25°C° 0.1 mm 2 m/S 722 mmHg 71%
12:00 +25°C° 0.2 mm 2 m/S 722 mmHg 71%
13:00 +25°C° 0.2 mm 2 m/S 721 mmHg 70%
14:00 +26°C° 0.2 mm 3 m/S 721 mmHg 69%
15:00 +25°C° 0.2 mm 3 m/S 721 mmHg 72%
16:00 +25°C° 0.2 mm 3 m/S 721 mmHg 74%
17:00 +24°C° 0.2 mm 3 m/S 720 mmHg 77%
18:00 +23°C° 0 mm 2 m/S 721 mmHg 80%
19:00 +21°C° 0 mm 2 m/S 721 mmHg 84%
20:00 +20°C° 0 mm 2 m/S 721 mmHg 88%
21:00 +20°C° 0.1 mm 2 m/S 721 mmHg 89%
22:00 +20°C° 0.1 mm 2 m/S 722 mmHg 90%
23:00 +20°C° 0.1 mm 2 m/S 722 mmHg 90%

30 Januar, Samstag

Zeit Temperatur Niederschläge Wind Luftdruck Luftfeuchtigkeit
00:00 +20°C° 0.1 mm 2 m/S 721 mmHg 90%
01:00 +19°C° 0.1 mm 2 m/S 721 mmHg 91%
02:00 +19°C° 0.1 mm 2 m/S 721 mmHg 91%
03:00 +19°C° 0 mm 2 m/S 721 mmHg 91%
04:00 +19°C° 0 mm 2 m/S 721 mmHg 91%
05:00 +19°C° 0 mm 2 m/S 721 mmHg 91%
06:00 +19°C° 0 mm 2 m/S 722 mmHg 90%
07:00 +20°C° 0 mm 2 m/S 722 mmHg 89%
08:00 +20°C° 0 mm 2 m/S 723 mmHg 88%
09:00 +21°C° 0.1 mm 3 m/S 723 mmHg 84%
10:00 +22°C° 0.1 mm 4 m/S 724 mmHg 79%
11:00 +25°C° 0.1 mm 4 m/S 724 mmHg 74%
12:00 +25°C° 0.1 mm 5 m/S 724 mmHg 73%
13:00 +25°C° 0.1 mm 5 m/S 723 mmHg 72%
14:00 +25°C° 0.1 mm 5 m/S 723 mmHg 72%
15:00 +25°C° 0.2 mm 5 m/S 723 mmHg 75%
16:00 +23°C° 0.2 mm 5 m/S 723 mmHg 78%
17:00 +22°C° 0.2 mm 5 m/S 722 mmHg 81%
18:00 +22°C° 0.2 mm 5 m/S 722 mmHg 84%
19:00 +21°C° 0.2 mm 4 m/S 723 mmHg 87%
20:00 +20°C° 0.2 mm 4 m/S 723 mmHg 91%
21:00 +20°C° 0.2 mm 4 m/S 723 mmHg 91%
22:00 +20°C° 0.2 mm 4 m/S 723 mmHg 91%
23:00 +20°C° 0.2 mm 4 m/S 723 mmHg 92%
Mehr zeigen

Wir brauchen deine Erlaubnis

Meteoprog und unser Service Anbieter werden persönliche Daten aufbewahren, so wie Cookies, Geräte Bezeichnung oder ähnliche Technologien von deinem Gerät und Prozess, so wie Persönliche Daten Inhalte und Werbungen, genauso wie social Media und den Verkehr zu analysieren.

  • Aufbewahrung und/oder Zugang zu deiner Geräte Informationen.

    Cookies, Geräte Bezeichnung oder andere Informationen, können aufbewahrt oder Zugang zu deinem Gerät erhalten, für den Grund, der oben angegeben wird.

  • Personalisierte Werbung und Inhalte, Messungen, Einblick in das Publikum und Produkt Entwicklung.

    Werbungen und Inhalte können personalisiert werden, basierend auf ein Profil. Mehr Daten können besser personalisierte Werbungen und Inhalte hinzufügen. Werbung und Inhalte können gezeigt und gemessen werden. Einblicke über das Publikum, welche die Werbung gesehen haben und den Inhalt, können abgeleitet werden. So wie Daten können genutzt werden, um es zu verbessern oder die Benutzer Erfahrung zu verbessern das System und die Software.

Wenn du “Ich stimme zu” klickst, erlaubst du uns, die Cookies zu benutzen die Geräte Bezeichnung, den Web oder ähnliche Technologien zu benutzen. Deine Settings, können in deinem Gerät bei deinem Browser geändert werden.

Für den bestimmten Zweck, berechtigten Interessen beruhen darauf, mehr als auf den Inhalt. Du kannst mehr darüber in unseren Privaten und Cookie Politik lesen.